Location: Atzesberg
(48.5333°N, 13.8667°E)
Time: 23:18:24
(UTC+00:00)

Daily predictions for brighter satellites

Satellite Brightness Start Highest point End
(mag) Time Altitude Azimuth Time Altitude Azimuth Time Altitude Azimuth
Cosmos 2279 Rocket 4.0 16:56:33 10° N 17:02:50 73° E 17:09:05 10° SSE
Cosmos 2369 3.7 16:58:29 10° SSW 17:04:10 72° ESE 17:09:53 10° NNE
SL-08 RB Rocket 4.2 17:00:07 10° S 17:04:42 70° WSW 17:09:21 10° NNW
Cosmos 1733 Rocket 3.2 17:00:50 10° S 17:05:11 56° E 17:09:33 10° NNE
BREEZE-M DEB (TANK) 4.2 17:01:35 10° SW 17:05:43 51° SE 17:20:36 10° ENE
Cosmos 1844 Rocket 4.0 17:01:39 10° N 17:06:06 23° NE 17:10:31 10° E
CZ-4B R/B 4.3 17:02:53 10° S 17:07:11 49° W 17:11:23 10° NNW
COBE Rocket 4.2 17:03:57 10° SE 17:08:28 42° ENE 17:12:56 10° N
Cosmos 2221 Rocket 3.6 17:05:01 10° N 17:09:33 64° E 17:14:03 10° SSE
Cosmos 2278 4.1 17:04:44 10° S 17:10:04 43° ESE 17:15:24 10° NE
SL-16 R/B 3.3 17:06:58 10° SSE 17:11:13 22° E 17:15:29 10° NE
PAYLOAD B 4.2 17:08:18 10° SSE 17:13:45 70° ENE 17:19:14 10° NNW
CZ-4B DEB 4.3 17:09:42 10° SSE 17:15:09 89° WSW 17:20:41 10° NNW
SKYMED 3 4.5 17:11:43 10° NNE 17:15:48 59° ESE 17:19:51 10° S
BREEZE-M DEB (TANK) 2.6 17:17:18 10° W 17:19:22 47° SSW 17:22:23 10° ESE
Cosmos 1674 4.5 17:16:27 10° NNW 17:19:54 36° W 17:23:20 10° SSW
COSMO-SKYMED 1 2.6 17:20:58 10° NNE 17:25:21 88° E 17:29:42 10° SSW
Cosmos 2263 Rocket 2.3 17:20:10 10° NNW 17:25:54 85° WSW 17:31:36 10° SSE
Meteor 1-24 Rocket 4.4 17:22:47 10° N 17:27:29 31° ENE 17:32:12 10° SE
SJ-6B 4.4 17:26:35 12° E 17:28:25 16° ENE 17:30:49 10° NNE
Cosmos 1437 Rocket 3.5 17:27:13 10° SSE 17:30:24 27° E 17:33:36 10° NE
Spot 1 4.0 17:26:41 10° NNE 17:30:50 60° ESE 17:34:51 10° S
ASTEX 1 3.4 17:26:22 10° N 17:31:22 87° E 17:36:23 10° S
HJ-1C 3.5 17:29:18 10° SSE 17:32:17 45° ENE 17:35:17 10° N
Cosmos 1741 Rocket 4.1 17:28:03 10° SSW 17:33:20 88° WNW 17:38:38 10° NNE
Feng Yun 1-1 Rocket 4.4 17:30:01 10° SE 17:35:14 48° ENE 17:40:24 10° N
USA 267 3.5 17:28:56 10° SE 17:35:29 74° SW 17:42:04 10° WNW
IRIDIUM 104 4.4 17:30:32 10° SSE 17:35:36 57° E 17:40:44 10° N
Cosmos 1814 Rocket 3.9 17:32:05 10° NNW 17:37:22 78° ENE 17:42:33 10° SSE
SL-4 R/B 2.5 17:33:49 10° WNW 17:38:12 67° SSW 17:42:27 12° SE
Cosmos 2084 Rocket 3.7 17:37:08 10° NNW 17:40:47 41° NE 17:43:23 18° ESE
Cosmos 1805 3.9 17:38:03 10° SSW 17:41:53 60° WNW 17:45:45 10° N
Cosmos 2208 Rocket 4.3 17:36:49 10° NNW 17:42:04 50° ENE 17:47:20 10° SE
Cosmos 2227 4.1 17:37:33 10° NNW 17:43:13 81° ENE 17:48:50 10° SSE
Cosmos 1242 Rocket 4.0 17:39:52 10° SW 17:43:14 40° WNW 17:46:36 10° N
IRIDIUM 114 4.3 17:39:34 10° S 17:44:44 68° E 17:49:56 10° N
Okean-O 3.8 17:42:55 16° ESE 17:45:12 24° ENE 17:48:46 10° N
Cosmos 489 Rocket 4.5 17:40:20 10° S 17:46:37 69° ESE 17:52:54 10° NNE
CZ-4 R/B 1.5 17:43:45 10° SSE 17:47:51 60° ENE 17:51:59 10° N
ISS -1.5 17:45:12 10° W 17:47:54 22° SW 17:50:34 10° SSE
Cosmos 1697 Rocket 4.3 17:43:43 10° WSW 17:48:50 35° NW 17:53:59 10° NNE
IGS 5A 4.5 17:48:12 19° ESE 17:50:07 27° ENE 17:53:36 10° N
Meteor 1-12 Rocket 4.3 17:45:02 10° S 17:50:58 67° E 17:56:57 10° NNE
BREEZE M DEB (TANK) 3.6 17:45:31 10° SSW 17:51:30 27° SSE 17:53:03 20° ESE
Cosmos 1908 Rocket 3.5 17:49:13 10° S 17:53:29 63° E 17:57:47 10° NNE
OBJECT-B 1.6 17:54:14 22° NE 17:54:14 22° NE 17:55:49 10° NNE
SL-14 R/B 4.5 17:50:01 10° NNW 17:53:49 46° W 17:57:39 10° SSW
IRIDIUM 103 4.3 17:48:39 10° S 17:53:52 81° E 17:59:07 10° N
Meteor 2-21 4.4 17:48:04 10° S 17:54:05 89° ESE 18:00:11 10° N
Cosmos 2360 Rocket 3.2 17:51:26 10° SSE 17:55:49 24° ESE 18:00:11 10° NE
USA 81 4.5 17:53:03 10° N 17:58:02 40° ENE 18:02:39 12° SE
Cosmos 1766 3.4 17:57:48 10° SSW 18:01:43 75° W 18:05:40 10° N
Cosmos 1782 Rocket 3.9 17:57:39 10° SSE 18:01:44 42° E 18:05:51 10° NNE
Cosmos 1025 Rocket 3.4 18:01:44 10° N 18:05:50 41° ENE 18:07:57 24° SE
YAOGAN 1 3.0 18:01:52 10° S 18:06:09 65° WSW 18:10:28 10° NNW
Cosmos 2026 Rocket 4.1 18:01:59 10° SSE 18:07:45 49° E 18:13:34 10° NNE
ATLAS 2AS CENTAUR R/B 4.4 18:02:31 10° NW 18:08:23 24° N 18:14:00 10° NE
Cosmos 968 Rocket 3.4 18:03:20 10° SSW 18:08:33 70° ESE 18:13:47 10° NNE
Okean O Rocket 1.8 18:05:38 10° S 18:09:58 72° WSW 18:14:23 10° NNW
Lacrosse 4 Rocket 1.9 18:09:40 10° S 18:13:25 36° ESE 18:13:56 34° E
Meteor 2-5 Rocket 3.6 18:10:00 10° N 18:15:33 82° ENE 18:21:06 10° SSE
Nadezhda 4 Rocket 4.2 18:09:19 10° SSW 18:15:39 78° W 18:22:00 10° N
CSL-04 Rocket 3.7 18:13:27 19° SE 18:17:10 55° ENE 18:22:27 10° N
Meteor 1-15 Rocket 4.1 18:11:50 10° S 18:17:24 89° ESE 18:23:00 10° NNE
Cosmos 1553 Rocket 4.4 18:12:36 10° N 18:18:38 43° ENE 18:21:53 25° SE
USA 186 1.8 18:22:41 57° ESE 18:23:02 61° ENE 18:26:23 10° N
Cosmos 1726 4.1 18:20:46 10° SW 18:24:01 30° WNW 18:27:18 10° N
Cosmos 2322 Rocket 2.2 18:18:54 10° S 18:24:28 57° ESE 18:30:03 10° NE
Cosmos 2237 4.2 18:19:29 10° S 18:25:04 59° ESE 18:30:40 10° NE
Landsat 7 4.1 18:25:23 37° ESE 18:26:30 44° ENE 18:30:59 10° N
SPOT 1/Viking Rocket 4.4 18:27:16 29° ENE 18:27:34 29° ENE 18:31:57 10° N
Cosmos 1470 2.6 18:24:40 10° S 18:28:30 89° WSW 18:32:22 10° N
CZ-4B R/B 4.4 18:23:29 10° S 18:28:35 43° W 18:33:50 10° NNW
deb Chang Zheng 4 4.3 18:29:32 32° NE 18:29:32 32° NE 18:32:48 10° N
Cosmos 1975 Rocket 2.9 18:26:30 10° N 18:30:57 78° E 18:33:09 29° SSE
Cosmos 1980 Rocket 3.9 18:25:55 10° WSW 18:30:58 33° NW 18:36:01 10° NNE
NOSS 3-3 (A) 4.3 18:27:10 10° S 18:32:11 36° ESE 18:32:26 36° ESE
NOSS 3-3 (C) 4.3 18:27:17 10° S 18:32:17 35° ESE 18:32:21 35° ESE
Ariane Rocket 4.4 18:36:14 22° NE 18:36:14 22° NE 18:39:37 10° N
CRYOSAT 2 4.2 18:34:18 17° SSE 18:38:09 80° E 18:43:05 10° N
Cosmos 2292 Rocket 4.1 18:33:44 10° SSW 18:38:44 60° W 18:42:34 10° N
Aureole 1 Rocket 4.4 18:35:29 10° S 18:42:17 41° ESE 18:47:50 10° NE
USA 215 3.8 18:36:54 14° NE 18:42:25 55° NNW 18:48:46 10° W
IRS-1C Rocket 4.0 18:43:42 34° SSE 18:46:05 81° ENE 18:51:22 10° NNW
Cosmos 1844 Rocket 2.7 18:45:00 10° NNW 18:50:43 84° WSW 18:52:59 38° SSE
SL-16 R/B 2.5 18:49:10 10° SW 18:54:48 67° WNW 19:00:29 10° NNE
Landsat 5 3.7 18:50:49 10° NNE 18:55:19 79° WNW 18:59:45 10° SSW
Cosmos 1943 Rocket 4.4 18:55:01 10° N 18:56:37 11° NNE 18:57:29 11° NE
Cosmos 1092 Rocket 4.3 18:50:56 10° SSW 18:57:11 67° WNW 19:03:27 10° N
Resurs 01 Rocket 2.5 19:01:19 38° NNE 19:01:19 38° NNE 19:04:26 10° N
Terra 4.2 19:03:50 11° NNE 19:03:50 11° NNE 19:04:10 10° NNE
SJ-6B 3.5 19:02:07 45° SW 19:02:37 49° W 19:06:19 10° NNW
H-2A R/B 3.5 19:07:12 33° N 19:07:12 33° N 19:09:28 10° N
Cosmos 2278 Rocket 3.5 19:01:16 10° N 19:05:41 25° NE 19:05:41 25° NE
Resurs 1-3 3.8 19:11:26 64° WSW 19:11:41 65° W 19:16:04 10° NNW
IRS-1A Rocket 4.3 19:15:25 63° ENE 19:15:25 63° ENE 19:21:05 10° N
SL-4 R/B 4.3 19:14:01 10° W 19:17:11 19° SW 19:17:51 18° SW
Cosmos 921 Rocket 4.4 19:12:54 10° N 19:15:35 32° NNE 19:15:35 32° NNE
Okean-O 3.7 19:20:29 37° SW 19:21:27 42° W 19:25:41 10° NNW
CZ-4 R/B 4.4 19:20:40 10° SW 19:23:09 15° W 19:25:39 10° NW
Cosmos 1486 Rocket 4.2 19:18:44 10° SSW 19:24:02 71° WNW 19:29:24 10° NNE
Cosmos 1844 4.2 19:19:42 10° NW 19:25:08 55° WSW 19:26:13 47° SSW
Cosmos 2266 Rocket 4.4 19:26:59 50° NE 19:26:59 50° NE 19:31:56 10° NNE
DNEPR-1 R/B 4.3 19:23:52 10° SW 19:28:38 66° NW 19:30:35 39° NNE
S3M 3.8 19:23:44 10° N 19:30:01 83° E 19:30:10 82° ESE
Cosmos 773 Rocket 4.1 19:26:16 10° NNW 19:31:00 71° NNW 19:31:00 71° NNW
Meteor 1-21 Rocket 4.2 19:26:36 10° N 19:31:34 71° N 19:31:34 71° N
Cosmos 2360 Rocket 2.5 19:33:45 10° SW 19:39:20 63° WNW 19:44:58 10° NNE
Lacrosse 4 Rocket 3.6 19:48:24 10° WSW 19:50:17 22° W 19:50:17 22° W
ATLAS 2AS CENTAUR R/B 3.6 19:54:51 10° NW 20:01:29 36° NNE 20:01:35 36° NNE
Cosmos 2322 Rocket 3.9 20:03:51 10° WSW 20:08:51 31° NW 20:13:53 10° NNE
NOSS 3-4 (A) 3.9 20:05:51 10° NW 20:12:04 75° WNW 20:12:04 75° WNW
NOSS 3-4 (C) 3.9 20:05:58 10° NW 20:12:10 75° NW 20:12:10 75° NW
Ariane Rocket 4.5 20:16:26 33° NW 20:16:26 33° NW 20:19:21 10° NNW
USA 215 4.1 20:24:15 42° NNE 20:24:48 43° N 20:30:53 10° WNW
USA 281 3.8 20:27:40 49° N 20:27:40 49° N 20:32:25 10° NNW
Resurs 01 Rocket 4.4 20:38:52 15° WNW 20:38:52 15° WNW 20:40:12 10° NW
Terra 4.4 20:42:43 16° NNW 20:42:43 16° NNW 20:43:39 10° NNW
Cosmos 1943 Rocket 4.2 20:36:54 10° NNW 20:38:59 21° N 20:38:59 21° N
Cosmos 2278 Rocket 4.0 20:44:56 10° NNW 20:47:32 28° NW 20:47:32 28° NW
Cosmos 2369 Rocket 4.5 20:56:56 10° N 20:58:48 17° N 20:58:48 17° N
ATLAS 2AS CENTAUR R/B 4.4 21:46:00 10° NW 21:49:00 27° NW 21:49:00 27° NW
